When you browse on this site, cookies collect data to enhance your experience and personalize the content and advertising you see.
Visit our Privacy Policy to learn more. By continuing to use the site, you agree to this use of cookies and data.
  • In Latvia
  • List of Countries
  • For 7 days
  • Water Temperature
  • Satellite Maps
  • Weather Map
  • Weather Widgets
  • user-avatar
    Login

    Hourly Weather Durres

    Today, 23 January, Wednesday

    Time Temperature Precipitation Wind Pressure Humidity
    00:00 +7°C° 0.8 mm 6 mps 752 mmHg 88%
    01:00 +7°C° 0 mm 5 mps 751 mmHg 90%
    02:00 +7°C° 1.1 mm 5 mps 751 mmHg 90%
    03:00 +7°C° 1.1 mm 5 mps 751 mmHg 90%
    04:00 +7°C° 1.1 mm 5 mps 751 mmHg 90%
    05:00 +7°C° 0.9 mm 5 mps 750 mmHg 88%
    06:00 +7°C° 0.9 mm 5 mps 750 mmHg 85%
    07:00 +7°C° 0 mm 4 mps 750 mmHg 84%
    08:00 +8°C° 0.2 mm 5 mps 750 mmHg 80%
    09:00 +8°C° 0.2 mm 5 mps 749 mmHg 77%
    10:00 +9°C° 0.2 mm 5 mps 749 mmHg 73%
    11:00 +11°C° 0.2 mm 4 mps 748 mmHg 72%
    12:00 +11°C° 0.2 mm 4 mps 748 mmHg 70%
    13:00 +11°C° 0.2 mm 3 mps 747 mmHg 68%
    14:00 +11°C° 0.2 mm 3 mps 747 mmHg 73%
    15:00 +10°C° 0.2 mm 3 mps 746 mmHg 78%
    16:00 +9°C° 0.2 mm 3 mps 746 mmHg 83%
    17:00 +9°C° 0.1 mm 2 mps 745 mmHg 84%
    18:00 +9°C° 0.1 mm 1 mps 745 mmHg 85%
    19:00 +9°C° 0.1 mm 1 mps 745 mmHg 86%
    20:00 +9°C° 0.1 mm 1 mps 745 mmHg 87%
    21:00 +8°C° 0.1 mm 0 mps 745 mmHg 88%
    22:00 +8°C° 0.1 mm 0 mps 744 mmHg 89%
    23:00 +9°C° 0.1 mm 1 mps 744 mmHg 90%

    Tomorrow, 24 January, Thursday

    Time Temperature Precipitation Wind Pressure Humidity
    00:00 +8°C° 0.1 mm 1 mps 744 mmHg 90%
    01:00 +8°C° 0.1 mm 1 mps 743 mmHg 90%
    02:00 +8°C° 0.1 mm 1 mps 743 mmHg 91%
    03:00 +7°C° 0.1 mm 2 mps 743 mmHg 92%
    04:00 +7°C° 0.1 mm 3 mps 743 mmHg 93%
    05:00 +7°C° 0.2 mm 3 mps 743 mmHg 93%
    06:00 +5°C° 0.2 mm 4 mps 743 mmHg 94%
    07:00 +5°C° 0.2 mm 4 mps 744 mmHg 94%
    08:00 +6°C° 0.1 mm 4 mps 744 mmHg 86%
    09:00 +7°C° 0.1 mm 4 mps 744 mmHg 78%
    10:00 +9°C° 0.1 mm 5 mps 744 mmHg 70%
    11:00 +10°C° 0 mm 4 mps 744 mmHg 63%
    12:00 +11°C° 0 mm 4 mps 744 mmHg 56%
    13:00 +12°C° 0 mm 4 mps 744 mmHg 50%
    14:00 +12°C° 0 mm 4 mps 744 mmHg 54%
    15:00 +11°C° 0 mm 4 mps 744 mmHg 57%
    16:00 +11°C° 0 mm 4 mps 744 mmHg 61%
    17:00 +9°C° 0 mm 5 mps 744 mmHg 65%
    18:00 +8°C° 0 mm 6 mps 744 mmHg 68%
    19:00 +5°C° 0 mm 7 mps 744 mmHg 72%
    20:00 +5°C° 0 mm 7 mps 743 mmHg 70%
    21:00 +5°C° 0 mm 8 mps 743 mmHg 68%
    22:00 +5°C° 0 mm 8 mps 743 mmHg 66%
    23:00 +5°C° 0.1 mm 8 mps 743 mmHg 66%

    Day after tomorrow, 25 January, Friday

    Time Temperature Precipitation Wind Pressure Humidity
    00:00 +6°C° 0.1 mm 8 mps 743 mmHg 66%
    01:00 +6°C° 0.1 mm 7 mps 743 mmHg 66%
    02:00 +5°C° 0.6 mm 6 mps 743 mmHg 70%
    03:00 +6°C° 0.6 mm 5 mps 743 mmHg 74%
    04:00 +6°C° 0.6 mm 4 mps 743 mmHg 78%
    05:00 +6°C° 0.1 mm 5 mps 743 mmHg 77%
    06:00 +5°C° 0.1 mm 5 mps 743 mmHg 76%
    07:00 +4°C° 0.1 mm 6 mps 744 mmHg 75%
    08:00 +6°C° 0.1 mm 5 mps 744 mmHg 73%
    09:00 +7°C° 0.1 mm 5 mps 744 mmHg 71%
    10:00 +7°C° 0.1 mm 5 mps 745 mmHg 70%
    11:00 +8°C° 0 mm 5 mps 745 mmHg 67%
    12:00 +9°C° 0 mm 5 mps 745 mmHg 65%
    13:00 +9°C° 0 mm 5 mps 745 mmHg 63%
    14:00 +9°C° 0 mm 5 mps 745 mmHg 65%
    15:00 +8°C° 0 mm 6 mps 745 mmHg 67%
    16:00 +8°C° 0 mm 6 mps 745 mmHg 69%
    17:00 +7°C° 0 mm 6 mps 745 mmHg 70%
    18:00 +7°C° 0 mm 6 mps 746 mmHg 71%
    19:00 +5°C° 0 mm 6 mps 746 mmHg 72%
    20:00 +4°C° 0 mm 6 mps 747 mmHg 72%
    21:00 +4°C° 0 mm 6 mps 747 mmHg 72%
    22:00 +3°C° 0 mm 5 mps 747 mmHg 72%
    23:00 +3°C° 0 mm 6 mps 747 mmHg 71%

    26 January, Saturday

    Time Temperature Precipitation Wind Pressure Humidity
    00:00 +3°C° 0 mm 6 mps 748 mmHg 71%
    01:00 +3°C° 0 mm 7 mps 748 mmHg 70%
    02:00 +2°C° 0 mm 7 mps 748 mmHg 69%
    03:00 +2°C° 0 mm 6 mps 748 mmHg 68%
    04:00 +2°C° 0 mm 6 mps 748 mmHg 67%
    05:00 +2°C° 0 mm 6 mps 748 mmHg 67%
    06:00 +2°C° 0 mm 6 mps 748 mmHg 67%
    07:00 +1°C° 0 mm 6 mps 749 mmHg 67%
    08:00 +3°C° 0 mm 6 mps 749 mmHg 63%
    09:00 +5°C° 0 mm 5 mps 749 mmHg 58%
    10:00 +7°C° 0 mm 5 mps 749 mmHg 54%
    11:00 +8°C° 0 mm 5 mps 750 mmHg 51%
    12:00 +9°C° 0 mm 5 mps 750 mmHg 48%
    13:00 +10°C° 0 mm 5 mps 750 mmHg 46%
    14:00 +9°C° 0 mm 6 mps 750 mmHg 51%
    15:00 +9°C° 0 mm 6 mps 750 mmHg 56%
    16:00 +9°C° 0 mm 6 mps 750 mmHg 61%
    17:00 +7°C° 0 mm 6 mps 751 mmHg 63%
    18:00 +5°C° 0 mm 6 mps 751 mmHg 66%
    19:00 +4°C° 0 mm 6 mps 752 mmHg 69%
    20:00 +3°C° 0 mm 5 mps 752 mmHg 68%
    21:00 +3°C° 0 mm 5 mps 752 mmHg 68%
    22:00 +3°C° 0 mm 4 mps 753 mmHg 68%
    23:00 +3°C° 0 mm 4 mps 753 mmHg 67%

    27 January, Sunday

    Time Temperature Precipitation Wind Pressure Humidity
    00:00 +3°C° 0 mm 4 mps 753 mmHg 67%
    01:00 +1°C° 0 mm 4 mps 753 mmHg 66%
    02:00 +2°C° 0 mm 3 mps 753 mmHg 65%
    03:00 +2°C° 0 mm 3 mps 753 mmHg 65%
    04:00 +2°C° 0 mm 3 mps 753 mmHg 64%
    05:00 +2°C° 0 mm 3 mps 753 mmHg 64%
    06:00 +3°C° 0 mm 2 mps 753 mmHg 64%
    07:00 +3°C° 0 mm 2 mps 753 mmHg 64%
    08:00 +4°C° 0 mm 2 mps 753 mmHg 58%
    09:00 +6°C° 0 mm 2 mps 753 mmHg 53%
    10:00 +9°C° 0 mm 1 mps 753 mmHg 48%
    11:00 +9°C° 0 mm 1 mps 753 mmHg 47%
    12:00 +10°C° 0 mm 1 mps 752 mmHg 46%
    13:00 +11°C° 0 mm 1 mps 752 mmHg 45%
    14:00 +11°C° 0 mm 1 mps 752 mmHg 48%
    15:00 +10°C° 0 mm 1 mps 752 mmHg 52%
    16:00 +10°C° 0 mm 1 mps 752 mmHg 56%
    17:00 +9°C° 0 mm 1 mps 752 mmHg 58%
    18:00 +8°C° 0 mm 1 mps 753 mmHg 60%
    19:00 +6°C° 0 mm 2 mps 753 mmHg 62%
    20:00 +5°C° 0 mm 3 mps 753 mmHg 62%
    21:00 +4°C° 0 mm 4 mps 754 mmHg 63%
    22:00 +3°C° 0 mm 5 mps 754 mmHg 63%
    23:00 +3°C° 0 mm 5 mps 754 mmHg 63%

    28 January, Monday

    Time Temperature Precipitation Wind Pressure Humidity
    00:00 +3°C° 0 mm 6 mps 754 mmHg 62%
    01:00 +3°C° 0 mm 7 mps 754 mmHg 61%
    02:00 +3°C° 0 mm 7 mps 753 mmHg 62%
    03:00 +3°C° 0 mm 7 mps 753 mmHg 63%
    04:00 +2°C° 0 mm 8 mps 753 mmHg 64%
    05:00 +2°C° 0.1 mm 8 mps 753 mmHg 63%
    06:00 +2°C° 0.1 mm 8 mps 753 mmHg 62%
    07:00 +2°C° 0.1 mm 8 mps 753 mmHg 62%
    08:00 +5°C° 0.1 mm 8 mps 753 mmHg 60%
    09:00 +6°C° 0.1 mm 9 mps 753 mmHg 57%
    10:00 +7°C° 0.1 mm 9 mps 753 mmHg 55%
    11:00 +8°C° 0.4 mm 9 mps 752 mmHg 56%
    12:00 +9°C° 0.4 mm 10 mps 752 mmHg 56%
    13:00 +9°C° 0.4 mm 10 mps 752 mmHg 56%
    14:00 +9°C° 0.7 mm 10 mps 752 mmHg 59%
    15:00 +8°C° 0.7 mm 10 mps 752 mmHg 62%
    16:00 +8°C° 0.7 mm 10 mps 752 mmHg 66%
    17:00 +7°C° 1.6 mm 10 mps 752 mmHg 67%
    18:00 +7°C° 1.6 mm 10 mps 752 mmHg 69%
    19:00 +6°C° 1.6 mm 9 mps 752 mmHg 71%
    20:00 +6°C° 0.8 mm 10 mps 752 mmHg 70%
    21:00 +6°C° 0.8 mm 10 mps 752 mmHg 69%
    22:00 +6°C° 0.8 mm 10 mps 752 mmHg 68%
    23:00 +6°C° 0.9 mm 11 mps 751 mmHg 66%
    Show more